Location: Grassland Mountain Observatory
(35.7543°N, 82.8038°W)
Time: 06:26:42
(UTC-05:00)

Tiangong - Visible Passes

Search period start: 06 December 2021 00:00
Search period end: 16 December 2021 00:00
Orbit: 380 x 384 km, 41.5° (Epoch: 06 December)

Date Brightness Start Highest point End Pass type
(mag) Time Alt. Az. Time Alt. Az. Time Alt. Az.
06 Dec 2.1 18:59:13 10° SW 19:01:36 36° S 19:01:36 36° S visible
07 Dec 2.8 17:59:19 10° SSW 18:01:51 22° SE 18:04:08 11° E visible
07 Dec 4.0 19:35:20 10° WSW 19:36:18 18° W 19:36:18 18° W visible
08 Dec 1.0 18:34:46 10° WSW 18:37:55 79° SSE 18:38:46 44° ENE visible
09 Dec 2.7 19:11:13 10° W 19:13:19 31° WNW 19:13:19 31° WNW visible
10 Dec 1.3 18:10:27 10° WSW 18:13:34 61° NNW 18:15:39 19° ENE visible
11 Dec 2.2 18:47:03 10° WNW 18:49:56 31° N 18:50:06 31° N visible
12 Dec 1.8 17:46:10 10° W 17:49:11 41° NNW 17:52:11 10° ENE visible
12 Dec 3.8 19:23:37 10° WNW 19:24:31 16° NW 19:24:31 16° NW visible
13 Dec 2.4 18:22:47 10° WNW 18:25:34 28° N 18:26:45 21° NE visible
14 Dec 2.7 18:59:08 10° WNW 19:01:10 26° NNW 19:01:10 26° NNW visible
15 Dec 2.4 17:58:21 10° WNW 18:01:06 27° N 18:03:27 13° ENE visible
15 Dec 4.1 19:35:09 10° WNW 19:35:36 13° WNW 19:35:36 13° WNW visible
